Tracking 28091 objects as of 30-Sep-2023
HD Live streaming from Space Station
objects crossing your sky now

STARLINK-4411

Track STARLINK-4411 now!
10-day predictions
STARLINK-4411 is classified as:


NORAD ID: 53202
Int'l Code: 2022-084P
Perigee: 569.9 km
Apogee: 570.4 km
Inclination: 97.7 °
Period: 95.9 minutes
Semi major axis: 6941 km
RCS: Unknown
Launch date: July 22, 2022
Source: United States (US)
Launch site: AIR FORCE WESTERN TEST RANGE (AFWTR)
Your satellite tracking list
Your tracking list is empty




NASA's NSSDC Master Catalog

Two Line Element Set (TLE):
1 53202U 22084P   23272.15397984  .00002607  00000-0  20745-3 0  9996
2 53202  97.6547 331.7372 0000299 111.7312 248.3944 15.01260162 65407
Source of the keplerian elements: AFSPC